Location: Antoign�
(47.0844°N, 0.1131°W)
Time: 10:41:27
(UTC+00:00)

Resurs 1-3 - Pass Details

Date: 03 March 2021
Orbit: 630 x 633 km, 97.9° (Epoch: 10 April)

Event Time Altitude Azimuth Distance (km) Brightness Sun altitude
Exits shadow 19:38:48 40° 72° (ENE) 931 4.0 -19.4°
Maximum altitude 19:38:52 41° 69° (ENE) 931 4.0 -19.4°
Drops below altitude 10° 19:43:00 10° 0° (N) 2,027 6.3 -20.1°
Sets 19:45:18 0° 353° (N) 2,940 7.3 -20.5°
